When you browse on this site, cookies collect data to enhance your experience and personalize the content and advertising you see.
Visit our Privacy Policy to learn more. By continuing to use the site, you agree to this use of cookies and data.
EN

Hourly Weather Dublyany

Today, 9 August, Sunday

Time Temperature Precipitation Wind Pressure Humidity
00:00 +21°C° 0 mm 1 mps 742 mmHg 87%
01:00 +20°C° 0 mm 1 mps 742 mmHg 88%
02:00 +20°C° 0 mm 1 mps 742 mmHg 90%
03:00 +18°C° 0.1 mm 0 mps 742 mmHg 90%
04:00 +18°C° 0.1 mm 0 mps 741 mmHg 90%
05:00 +18°C° 0.1 mm 0 mps 741 mmHg 90%
06:00 +19°C° 0.2 mm 0 mps 741 mmHg 88%
07:00 +22°C° 0.2 mm 1 mps 741 mmHg 85%
08:00 +24°C° 0 mm 1 mps 742 mmHg 79%
09:00 +25°C° 1.1 mm 1 mps 742 mmHg 75%
10:00 +26°C° 1.1 mm 1 mps 742 mmHg 70%
11:00 +27°C° 1.1 mm 1 mps 742 mmHg 66%
12:00 +28°C° 0.7 mm 1 mps 741 mmHg 63%
13:00 +28°C° 0.7 mm 2 mps 741 mmHg 61%
14:00 +29°C° 0 mm 2 mps 741 mmHg 59%
15:00 +28°C° 0.4 mm 2 mps 741 mmHg 63%
16:00 +28°C° 0.4 mm 3 mps 741 mmHg 67%
17:00 +27°C° 0.4 mm 3 mps 740 mmHg 71%
18:00 +26°C° 0.1 mm 2 mps 740 mmHg 75%
19:00 +24°C° 0.1 mm 2 mps 740 mmHg 79%
20:00 +22°C° 0.1 mm 1 mps 740 mmHg 84%
21:00 +22°C° 0.1 mm 1 mps 740 mmHg 85%
22:00 +21°C° 0.1 mm 1 mps 740 mmHg 85%
23:00 +19°C° 0.1 mm 0 mps 740 mmHg 86%

Tomorrow, 10 August, Monday

Time Temperature Precipitation Wind Pressure Humidity
00:00 +19°C° 0 mm 0 mps 740 mmHg 86%
01:00 +19°C° 0 mm 0 mps 740 mmHg 86%
02:00 +19°C° 0 mm 0 mps 739 mmHg 86%
03:00 +18°C° 0.1 mm 0 mps 739 mmHg 88%
04:00 +20°C° 0.1 mm 1 mps 739 mmHg 89%
05:00 +19°C° 0.1 mm 1 mps 739 mmHg 91%
06:00 +20°C° 0 mm 1 mps 739 mmHg 88%
07:00 +22°C° 0 mm 1 mps 739 mmHg 84%
08:00 +23°C° 0 mm 1 mps 740 mmHg 81%
09:00 +24°C° 1.1 mm 1 mps 740 mmHg 76%
10:00 +25°C° 1.1 mm 1 mps 740 mmHg 70%
11:00 +27°C° 1.1 mm 2 mps 740 mmHg 64%
12:00 +27°C° 0.4 mm 2 mps 740 mmHg 63%
13:00 +27°C° 0.4 mm 2 mps 739 mmHg 62%
14:00 +28°C° 0.4 mm 3 mps 739 mmHg 60%
15:00 +27°C° 0.5 mm 3 mps 739 mmHg 63%
16:00 +27°C° 0.5 mm 3 mps 739 mmHg 66%
17:00 +27°C° 0.5 mm 3 mps 739 mmHg 69%
18:00 +25°C° 0.2 mm 2 mps 739 mmHg 75%
19:00 +23°C° 0.2 mm 2 mps 739 mmHg 80%
20:00 +21°C° 0.2 mm 2 mps 739 mmHg 86%
21:00 +20°C° 0 mm 2 mps 739 mmHg 88%
22:00 +21°C° 0 mm 1 mps 739 mmHg 89%
23:00 +20°C° 0 mm 1 mps 740 mmHg 90%

Day after tomorrow, 11 August, Tuesday

Time Temperature Precipitation Wind Pressure Humidity
00:00 +20°C° 0 mm 1 mps 740 mmHg 91%
01:00 +19°C° 0 mm 1 mps 740 mmHg 91%
02:00 +19°C° 0 mm 1 mps 740 mmHg 92%
03:00 +19°C° 0 mm 1 mps 740 mmHg 92%
04:00 +18°C° 0 mm 1 mps 740 mmHg 92%
05:00 +18°C° 0 mm 1 mps 740 mmHg 92%
06:00 +19°C° 0 mm 1 mps 740 mmHg 89%
07:00 +20°C° 0 mm 1 mps 740 mmHg 86%
08:00 +22°C° 0 mm 1 mps 740 mmHg 83%
09:00 +23°C° 0 mm 1 mps 740 mmHg 78%
10:00 +24°C° 0 mm 1 mps 740 mmHg 73%
11:00 +26°C° 0 mm 1 mps 741 mmHg 68%
12:00 +26°C° 0.2 mm 2 mps 740 mmHg 65%
13:00 +27°C° 0.2 mm 2 mps 740 mmHg 62%
14:00 +27°C° 0.2 mm 2 mps 740 mmHg 59%
15:00 +27°C° 0.2 mm 2 mps 740 mmHg 61%
16:00 +27°C° 0.2 mm 2 mps 740 mmHg 62%
17:00 +27°C° 0.2 mm 2 mps 740 mmHg 64%
18:00 +25°C° 0.2 mm 2 mps 740 mmHg 71%
19:00 +23°C° 0.2 mm 2 mps 740 mmHg 77%
20:00 +21°C° 0.2 mm 2 mps 740 mmHg 84%
21:00 +20°C° 0.3 mm 2 mps 740 mmHg 87%
22:00 +19°C° 0.3 mm 2 mps 740 mmHg 90%
23:00 +18°C° 0.3 mm 2 mps 740 mmHg 93%

12 August, Wednesday

Time Temperature Precipitation Wind Pressure Humidity
00:00 +18°C° 0.1 mm 2 mps 740 mmHg 94%
01:00 +18°C° 0.1 mm 2 mps 740 mmHg 95%
02:00 +17°C° 0.1 mm 2 mps 740 mmHg 96%
03:00 +17°C° 0 mm 2 mps 740 mmHg 96%
04:00 +16°C° 0 mm 2 mps 740 mmHg 97%
05:00 +16°C° 0 mm 2 mps 740 mmHg 97%
06:00 +16°C° 0 mm 3 mps 741 mmHg 95%
07:00 +17°C° 0 mm 3 mps 741 mmHg 94%
08:00 +18°C° 0 mm 3 mps 741 mmHg 92%
09:00 +19°C° 0 mm 3 mps 741 mmHg 88%
10:00 +20°C° 0 mm 3 mps 742 mmHg 84%
11:00 +21°C° 0 mm 3 mps 742 mmHg 80%
12:00 +22°C° 0 mm 3 mps 742 mmHg 75%
13:00 +22°C° 0 mm 4 mps 742 mmHg 70%
14:00 +23°C° 0 mm 4 mps 742 mmHg 65%
15:00 +23°C° 0 mm 4 mps 742 mmHg 65%
16:00 +22°C° 0 mm 4 mps 742 mmHg 65%
17:00 +22°C° 0 mm 4 mps 741 mmHg 66%
18:00 +21°C° 0 mm 3 mps 742 mmHg 71%
19:00 +19°C° 0 mm 3 mps 742 mmHg 76%
20:00 +17°C° 0 mm 2 mps 742 mmHg 82%
21:00 +16°C° 0 mm 2 mps 742 mmHg 83%
22:00 +16°C° 0 mm 2 mps 742 mmHg 85%
23:00 +15°C° 0 mm 1 mps 742 mmHg 86%

13 August, Thursday

Time Temperature Precipitation Wind Pressure Humidity
00:00 +15°C° 0 mm 1 mps 742 mmHg 87%
01:00 +14°C° 0 mm 1 mps 742 mmHg 88%
02:00 +14°C° 0 mm 1 mps 742 mmHg 90%
03:00 +13°C° 0 mm 1 mps 742 mmHg 90%
04:00 +13°C° 0 mm 1 mps 741 mmHg 91%
05:00 +13°C° 0 mm 1 mps 741 mmHg 91%
06:00 +14°C° 0 mm 1 mps 741 mmHg 87%
07:00 +16°C° 0 mm 1 mps 742 mmHg 83%
08:00 +18°C° 0 mm 1 mps 742 mmHg 79%
09:00 +18°C° 0 mm 2 mps 742 mmHg 74%
10:00 +20°C° 0 mm 2 mps 742 mmHg 69%
11:00 +21°C° 0 mm 2 mps 742 mmHg 64%
12:00 +21°C° 0 mm 2 mps 742 mmHg 63%
13:00 +23°C° 0 mm 2 mps 741 mmHg 61%
14:00 +23°C° 0 mm 2 mps 741 mmHg 59%
15:00 +22°C° 0 mm 3 mps 741 mmHg 61%
16:00 +22°C° 0 mm 3 mps 741 mmHg 63%
17:00 +22°C° 0 mm 3 mps 740 mmHg 65%
18:00 +20°C° 0 mm 3 mps 741 mmHg 71%
19:00 +18°C° 0 mm 3 mps 741 mmHg 76%
20:00 +16°C° 0 mm 3 mps 741 mmHg 82%
21:00 +16°C° 0 mm 3 mps 741 mmHg 83%
22:00 +15°C° 0 mm 2 mps 741 mmHg 85%
23:00 +14°C° 0 mm 2 mps 741 mmHg 86%

14 August, Friday

Time Temperature Precipitation Wind Pressure Humidity
00:00 +14°C° 0 mm 2 mps 741 mmHg 88%
01:00 +13°C° 0 mm 2 mps 741 mmHg 90%
02:00 +13°C° 0 mm 2 mps 741 mmHg 92%
03:00 +12°C° 0 mm 2 mps 741 mmHg 92%
04:00 +12°C° 0 mm 2 mps 741 mmHg 92%
05:00 +12°C° 0 mm 2 mps 741 mmHg 92%
06:00 +12°C° 0 mm 3 mps 741 mmHg 88%
07:00 +14°C° 0 mm 3 mps 741 mmHg 83%
08:00 +16°C° 0 mm 3 mps 741 mmHg 78%
09:00 +17°C° 0 mm 3 mps 741 mmHg 74%
10:00 +19°C° 0 mm 4 mps 741 mmHg 69%
11:00 +20°C° 0 mm 4 mps 741 mmHg 65%
12:00 +21°C° 0 mm 4 mps 741 mmHg 64%
13:00 +21°C° 0 mm 4 mps 741 mmHg 62%
14:00 +22°C° 0 mm 4 mps 740 mmHg 61%
15:00 +22°C° 0 mm 4 mps 740 mmHg 63%
16:00 +21°C° 0 mm 4 mps 740 mmHg 64%
17:00 +21°C° 0 mm 4 mps 740 mmHg 66%
18:00 +20°C° 0 mm 4 mps 740 mmHg 71%
19:00 +18°C° 0 mm 4 mps 740 mmHg 77%
20:00 +16°C° 0 mm 3 mps 740 mmHg 82%
21:00 +14°C° 0 mm 3 mps 740 mmHg 83%
22:00 +14°C° 0 mm 3 mps 740 mmHg 84%
23:00 +13°C° 0 mm 3 mps 740 mmHg 85%
Show more